FW3160 Weather Reports


time (UTC)temp
C
wind
direction
speed
KPH
gust
KPH
rain 1hr
cm
rain 24hr
cm
rain mn
cm
humidity
%
barometer
mb
20260504044525 33 273 1.6 9.7 0.00 0.00 0.00 58 1006.5
20260504043035 33 254 3.2 12.9 0.00 0.00 0.00 58 1006.8
20260504041521 33 299 3.2 11.3 0.00 0.00 0.00 62 1006.8
20260504040024 33 298 3.2 8.0 0.00 0.00 0.00 62 1007.0
20260504034517 32 262 3.2 9.7 0.00 0.00 0.00 60 1007.2
20260504033014 32 254 3.2 8.0 0.00 0.00 0.00 65 1007.2
20260504031512 31 229 6.4 12.9 0.00 0.00 0.00 63 1007.4
20260504030016 31 319 4.8 8.0 0.00 0.00 0.00 66 1007.5
20260504024508 30 345 0.0 6.4 0.00 0.00 0.00 66 1007.5
20260504023008 30 346 3.2 6.4 0.00 0.00 0.00 66 1007.8
20260504020057 29 354 1.6 4.8 0.00 0.00 0.00 72 1007.7
20260504014543 28 354 0.0 3.2 0.00 0.00 0.00 77 1007.7
20260504013036 27 354 0.0 3.2 0.00 0.00 0.00 78 1007.7
20260504011526 27 4 0.0 4.8 0.00 0.00 0.00 81 1007.6
20260504010022 26 4 0.0 0.0 0.00 0.00 0.00 79 1007.3
20260504004519 26 4 0.0 1.6 0.00 0.00 0.00 82 1007.2
20260504003016 25 4 0.0 1.6 0.00 0.00 0.00 84 1007.1
20260504001513 24 4 0.0 0.0 0.00 0.00 0.00 87 1006.8
20260504000012 23 4 0.0 0.0 0.00 0.00 0.00 89 1006.7
20260503234511 22 4 0.0 0.0 0.00 0.00 0.00 89 1006.6
20260503233018 22 4 0.0 0.0 0.00 0.00 0.00 89 1006.5
20260503231507 22 4 0.0 0.0 0.00 0.00 0.00 89 1006.5
20260503230006 22 4 0.0 0.0 0.00 0.00 0.00 89 1006.3
20260503224505 22 4 0.0 0.0 0.00 0.00 0.00 88 1006.2
20260503223002 22 4 0.0 0.0 0.00 0.00 0.00 89 1006.0
20260503221604 22 4 0.0 0.0 0.00 0.00 0.00 88 1005.8
20260503220056 22 4 0.0 3.2 0.00 0.00 0.00 88 1005.5
20260503214558 22 4 0.0 0.0 0.00 0.00 0.00 87 1005.3
20260503213053 22 4 0.0 1.6 0.00 0.00 0.00 87 1005.0
20260503211549 23 4 0.0 0.0 0.00 0.00 0.00 88 1004.9
20260503210051 23 4 0.0 1.6 0.00 0.00 0.00 87 1004.9
20260503204550 23 4 0.0 0.0 0.00 0.00 0.00 87 1004.8
20260503203103 23 4 0.0 0.0 0.00 0.00 0.00 87 1004.7
20260503201546 23 4 0.0 1.6 0.00 0.00 0.00 86 1004.8
20260503200044 23 4 0.0 0.0 0.00 0.00 0.00 86 1004.8
20260503194544 23 4 0.0 1.6 0.00 0.00 0.00 86 1005.1
20260503193042 23 4 0.0 1.6 0.00 0.00 0.00 86 1005.0
20260503191546 23 4 0.0 1.6 0.00 0.00 0.00 85 1005.0
20260503190042 23 4 0.0 0.0 0.00 0.00 0.00 86 1005.1
20260503184535 23 4 0.0 3.2 0.00 0.00 0.00 86 1005.2
20260503183034 24 4 0.0 0.0 0.00 0.00 0.00 86 1005.1
20260503181535 24 4 0.0 0.0 0.00 0.00 0.00 86 1005.3
20260503180034 24 4 0.0 3.2 0.00 0.00 0.00 86 1005.4
20260503174531 25 4 0.0 3.2 0.00 0.00 0.00 86 1005.3
20260503173028 25 4 0.0 4.8 0.00 0.00 0.00 86 1005.3
20260503171525 25 4 0.0 1.6 0.00 0.00 0.00 86 1005.4
20260503081600 35 258 0.0 6.4 0.00 0.00 0.00 54 1001.7